Weather History for Shawbury, United Kingdom

Change the Weather History Date:

Saturday, November 17, 2012

  Actual Average Record
Temperature  
Mean Temperature 39 °F -  
Max Temperature 48 °F 45 °F 59 °F (1997)
Min Temperature 30 °F 35 °F 24 °F (2005)
Degree Days  
Heating Degree Days 26    
Moisture  
Dew Point 39 °F    
Average Humidity 89    
Maximum Humidity 100    
Minimum Humidity 66    
Precipitation  
Precipitation 0.00 in - - ()
Sea Level Pressure  
Sea Level Pressure 29.75 in    
Wind  
Wind Speed 4 mph ()    
Max Wind Speed 8 mph    
Max Gust Speed -    
Visibility 6.8 miles    
Events Rain    
Averages and records for this station are not official NWS values.
T = Trace of Precipitation, MM = Missing Value Source: Averaged Metar Reports

Daily Weather History Graph

Daily Weather History Graph

Search for Another Location

Airport:

Trip Planner

Search our weather history database for the weather conditions in past years. The results will help you decide how hot, cold, wet, or windy it might be!

Date:

Astronomy

Nov. 17, 2012 Rise Set
Actual Time 7:37 AM GMT 4:13 PM GMT
Civil Twilight 6:59 AM GMT 4:51 PM GMT
Nautical Twilight 6:16 AM GMT 5:34 PM GMT
Astronomical Twilight 5:36 AM GMT 6:14 PM GMT
Moon 11:13 AM GMT (11/17) 8:05 PM GMT (11/17)
Length of Visible Light 9h 52m
Length of Day
8h 35m
Waxing Crescent, 18% of the Moon is Illuminated
Nov 17
Waxing Crescent
Nov 20
First Quarter
Nov 28
Full
Dec 6
Last Quarter
Dec 13
New

Hourly Weather History & Observations

Time (GMT) Temp. Windchill Dew Point Humidity Pressure Visibility Wind Dir Wind Speed Gust Speed Precip Events Conditions
12:50 AM 44.6 °F - 44.6 °F 100% 29.71 in 4.3 mi NE 1.2 mph - N/A   Mostly Cloudy
1:50 AM 44.6 °F - 42.8 °F 93% 29.68 in 3.1 mi NW 1.2 mph - N/A   Mostly Cloudy
2:50 AM 44 °F - 44 °F 97% 29.69 in 3 mi West 3.5 mph - - Rain Light Rain Showers
2:50 AM 44.6 °F 43.1 °F 42.8 °F 93% 29.68 in - West 3.5 mph - N/A Rain Light Rain Showers
3:50 AM 42.8 °F 40.1 °F 42.8 °F 100% 29.65 in 3.1 mi WNW 4.6 mph - N/A Rain Light Rain
4:50 AM 44.6 °F 41.4 °F 42.8 °F 93% 29.65 in - WNW 5.8 mph - N/A Rain Rain
5:50 AM 44 °F - 43 °F 94% 29.69 in 5 mi WNW 4.6 mph - - Rain Light Rain
5:50 AM 42.8 °F 40.1 °F 42.8 °F 100% 29.68 in 5.0 mi WNW 4.6 mph - N/A Rain Light Rain
6:50 AM 42.8 °F 41.1 °F 42.8 °F 100% 29.68 in 3.1 mi WSW 3.5 mph - N/A   Light Drizzle
7:50 AM 42.8 °F - 42.8 °F 100% 29.71 in 6.2 mi West 2.3 mph - N/A   Mostly Cloudy
8:50 AM 45 °F - 43 °F 90% 29.73 in 15 mi WNW 6.9 mph - -   Partly Cloudy
8:50 AM 44.6 °F 40.7 °F 42.8 °F 93% 29.71 in 6.2 mi WNW 6.9 mph - N/A   Mostly Cloudy
9:50 AM 46.4 °F 43.5 °F 42.8 °F 87% 29.74 in 6.2 mi WNW 5.8 mph - N/A   Mostly Cloudy
10:50 AM 46.4 °F 42.9 °F 42.8 °F 87% 29.74 in 6.2 mi West 6.9 mph - N/A   Mostly Cloudy
11:50 AM 47 °F - 41 °F 73% 29.76 in 22 mi West 6.9 mph - -   Mostly Cloudy
11:50 AM 46.4 °F 42.9 °F 41.0 °F 81% 29.74 in 6.2 mi West 6.9 mph - N/A   Mostly Cloudy
12:50 PM 46.4 °F 42.9 °F 42.8 °F 87% 29.74 in 6.2 mi West 6.9 mph - N/A   Partly Cloudy
1:50 PM 48.2 °F - 39.2 °F 71% 29.74 in 6.2 mi West 5.8 mph - N/A   Scattered Clouds
2:50 PM 46 °F - 38 °F 66% 29.77 in 25 mi West 8.1 mph - -  
2:50 PM 46.4 °F 42.4 °F 39.2 °F 76% 29.74 in 6.2 mi West 8.1 mph - N/A   Unknown
3:50 PM 42.8 °F 40.1 °F 35.6 °F 76% 29.77 in 6.2 mi West 4.6 mph - N/A   Unknown
4:50 PM 41.0 °F 36.4 °F 33.8 °F 76% 29.77 in 6.2 mi West 6.9 mph - N/A   Unknown
5:50 PM 38 °F - 34 °F 81% 29.81 in 17 mi West 6.9 mph - -  
5:50 PM 37.4 °F 32.1 °F 33.8 °F 87% 29.80 in 6.2 mi West 6.9 mph - N/A   Unknown
6:50 PM 35.6 °F 30.7 °F 33.8 °F 93% 29.80 in 6.2 mi WSW 5.8 mph - N/A   Unknown
7:50 PM 37.4 °F - 33.8 °F 87% 29.80 in 6.2 mi WSW 2.3 mph - N/A   Unknown
8:50 PM 36 °F - 33 °F 87% 29.84 in 19 mi SW 4.6 mph - -  
8:50 PM 35.6 °F 31.7 °F 33.8 °F 93% 29.83 in 6.2 mi SW 4.6 mph - N/A   Unknown
9:50 PM 33.8 °F - 32.0 °F 93% 29.83 in 6.2 mi NNE 1.2 mph - N/A   Unknown
10:50 PM 30.2 °F 26.7 °F 30.2 °F 100% 29.83 in 6.2 mi WSW 3.5 mph - N/A   Unknown
11:50 PM 30.2 °F 25.4 °F 30.2 °F 100% 29.86 in 6.2 mi WSW 4.6 mph - N/A   Unknown